Location: site
(53.0000°N, 23.0500°E)
Time: 17:32:08
(UTC+01:00)

SAOCOM 1-A - Pass Details

Date: 24 January 2020
Orbit: 621 x 623 km, 97.9° (Epoch: 25 February)

Event Time Altitude Azimuth Distance (km) Brightness Sun altitude
Exits shadow 17:43:05 - 19° (NNE) 2,202 ? -15.7°
Reaches altitude 10° 17:43:34 10° 21° (NNE) 2,006 ? -15.8°
Maximum altitude 17:47:53 60° 101° (ESE) 716 ? -16.4°
Drops below altitude 10° 17:52:10 10° 182° (S) 1,989 ? -17.1°
Sets 17:54:22 0° 186° (S) 2,890 ? -17.4°
